Content
SEND FEEDBACK

Daily
Averages
Monthly
Summary
Switzerland

GENEVA, SWITZERLAND


Home > Europe > Switzerland
Elevation: 1364 feet     Latitude: 46 15N     Longitude: 006 08E

WEATHER
 
SELECT A DAY
Number of Records: 317,262;   Date Range: 7/1/96 - 12/19/14
 
SHARE

PRINT THIS DATA

[ ← Previous Day ]
WEATHER ALMANAC - OCTOBER 18, 2013
[ Next Day → ]
[ °C ]   °F
Weather ElementAverageHighLow
Temperature49.6 °F60.8 °F (3:20 pm)41 °F (5:20 am)
Dewpoint46.2 °F50 °F (10:20 am)40 °F (7:00 am)
Humidity88.3 %100 % (12:20 am)55 % (2:00 pm)
Barometer30.08 in30.16 in (1:00 am)30.01 in (5:50 pm)
Wind Speed1.6 mph6.9 mph (11:50 am)
Weather ElementAverage
Visibility6.2 mi
Wind DirectionENE (58.3 °)

Weather ElementTotal
Precipitation---
Heating Degree Days14.1 (Base 65)
Growing Degree Days0.9 (Base 50)
Averaged from 65 records on October 18, 2013
WEATHER CONDITIONS BREAKOUT
WIND DIRECTION BREAKOUT
WEATHER BY HOUR - OCTOBER 18, 2013
[ °C ]   °F
Local TimeTemperatureDewpointHumidityBarometerVisibilityWind DirectionWind SpeedGust SpeedPrecipitationEventsConditions
12:20 AM46.4 °F46.4 °F100 %30.12 inCalmClear
12:50 AM44.6 °F44.6 °F100 %30.12 inCalmClear
1:00 AM46.0 °F44.0 °F92 %30.16 inNNE (30°)1.2 mph
1:20 AM44.6 °F44.6 °F100 %30.12 inCalmClear
1:50 AM44.6 °F44.6 °F100 %30.12 inCalmClear
2:00 AM45.0 °F43.0 °F90 %30.16 in16.0 miNW (320°)3.5 mphClear
2:20 AM44.6 °F44.6 °F100 %30.12 in6.2 miWNW (300°)1.2 mphFogShallow Fog
2:50 AM44.6 °F44.6 °F100 %30.12 in6.2 miCalmFogShallow Fog
3:00 AM45.0 °F43.0 °F92 %30.15 inCalm
3:50 AM42.8 °F42.8 °F100 %30.09 in6.2 miCalmFogShallow Fog
4:00 AM44.0 °F42.0 °F91 %30.14 inWNW (300°)1.2 mph
4:20 AM42.8 °F42.8 °F100 %30.09 in6.2 miCalmFogPatches of Fog
4:50 AM42.8 °F42.8 °F100 %30.09 in6.2 miCalmFogPatches of Fog
5:20 AM41.0 °F41.0 °F100 %30.09 in6.2 miCalmFogShallow Fog
5:50 AM41.0 °F41.0 °F100 %30.09 in6.2 miCalmFogShallow Fog
6:20 AM41.0 °F41.0 °F100 %30.09 in6.2 miCalmFogShallow Fog
6:50 AM41.0 °F41.0 °F100 %30.09 in6.2 miCalmFogShallow Fog
7:00 AM42.0 °F40.0 °F91 %30.14 inNNW (340°)1.2 mph
7:20 AM41.0 °F41.0 °F100 %30.09 in6.2 miCalmFogPatches of Fog
7:50 AM41.0 °F41.0 °F100 %30.09 in1.0 miVariable1.2 mphFogFog
8:00 AM42.0 °F41.0 °F95 %30.13 in2.0 miWNW (290°)1.2 mphMist
8:20 AM42.8 °F42.8 °F100 %30.09 in0.2 miCalmFogFog
8:50 AM44.6 °F44.6 °F100 %30.09 in0.2 miVariable1.2 mphFogFog
9:00 AM45.0 °F44.0 °F96 %30.13 inWNW (290°)3.5 mph
9:20 AM46.4 °F46.4 °F100 %30.09 in1.2 miVariable1.2 mphFogPatches of Fog
9:50 AM48.2 °F48.2 °F100 %30.09 in3.1 miVariable1.2 mphFogPatches of Fog
10:00 AM49.0 °F47.0 °F88 %30.12 inWSW (240°)2.3 mph
10:20 AM50.0 °F50.0 °F100 %30.09 in6.2 miVariable2.3 mphScattered Clouds
10:50 AM50.0 °F48.2 °F94 %30.09 in6.2 miVariable1.2 mphMostly Cloudy
11:20 AM51.8 °F50.0 °F94 %30.09 in6.2 miVariable2.3 mphMostly Cloudy
11:50 AM53.6 °F48.2 °F82 %30.09 in6.2 miENE (60°)6.9 mphMostly Cloudy
12:00 PM52.0 °F47.0 °F76 %30.11 inNE (50°)5.8 mph
12:20 PM53.6 °F48.2 °F82 %30.09 in6.2 miNE (40°)5.8 mphScattered Clouds
12:50 PM57.2 °F50.0 °F77 %30.09 in6.2 miENE (60°)6.9 mphMostly Cloudy
1:00 PM56.0 °F48.0 °F66 %30.08 inNNE (20°)5.8 mph
1:20 PM57.2 °F50.0 °F77 %30.06 in6.2 miNorth (10°)4.6 mphMostly Cloudy
1:50 PM59.0 °F48.2 °F67 %30.06 in6.2 miNNE (20°)4.6 mphMostly Cloudy
2:00 PM57.0 °F45.0 °F55 %30.05 in11.0 miENE (60°)6.9 mphPartly Cloudy
2:20 PM57.2 °F46.4 °F67 %30.04 in6.2 miNE (50°)5.8 mphMostly Cloudy
2:50 PM59.0 °F48.2 °F67 %30.04 in6.2 miVariable3.5 mphMostly Cloudy
3:00 PM58.0 °F46.0 °F55 %30.04 inNE (40°)3.5 mph
3:20 PM60.8 °F48.2 °F63 %30.04 in6.2 miVariable2.3 mphMostly Cloudy
3:50 PM59.0 °F48.2 °F67 %30.04 in6.2 miVariable3.5 mphMostly Cloudy
4:00 PM58.0 °F47.0 °F56 %30.03 inNE (50°)2.3 mph
4:20 PM59.0 °F48.2 °F67 %30.04 in6.2 miVariable2.3 mphMostly Cloudy
4:50 PM59.0 °F50.0 °F72 %30.04 in6.2 miCalmMostly Cloudy
5:20 PM59.0 °F50.0 °F72 %30.04 in6.2 miCalmMostly Cloudy
5:50 PM59.0 °F50.0 °F72 %30.01 inCalmClear
6:00 PM57.0 °F49.0 °F66 %30.02 inEast (90°)2.3 mph
6:20 PM57.2 °F50.0 °F77 %30.01 inEast (80°)1.2 mphClear
6:50 PM53.6 °F50.0 °F88 %30.01 inCalmClear
7:00 PM53.0 °F49.0 °F84 %30.03 inCalm
7:20 PM50.0 °F50.0 °F100 %30.04 inCalmClear
7:50 PM50.0 °F48.2 °F94 %30.04 inCalmClear
8:00 PM51.0 °F48.0 °F87 %30.05 in22.0 miNorth (350°)1.2 mphScattered Clouds
8:20 PM50.0 °F50.0 °F100 %30.04 inCalmClear
8:50 PM48.2 °F48.2 °F100 %30.04 inCalmClear
9:00 PM49.0 °F47.0 °F91 %30.05 inWest (270°)2.3 mph
9:20 PM48.2 °F48.2 °F100 %30.04 inCalmClear
9:50 PM48.2 °F48.2 °F100 %30.04 inCalmClear
10:00 PM49.0 °F47.0 °F89 %30.06 inNW (310°)1.2 mph
10:20 PM48.2 °F48.2 °F100 %30.04 inCalmClear
10:50 PM46.4 °F46.4 °F100 %30.06 inCalmClear
11:20 PM46.4 °F46.4 °F100 %30.06 inCalmClear
11:50 PM46.4 °F46.4 °F100 %30.06 inCalmClear
Hourly data recorded from LSGG, located miles away from Geneva, Switzerland







STORIES FROM OUR PARTNERS